Location: London
(51.5074°N, 0.1278°W)
Time: 21:04:15
(UTC+01:00)

DELFI C3 - Pass Details

Date: 29 September 2020
Orbit: 535 x 549 km, 97.4° (Epoch: 22 October)

Event Time Altitude Azimuth Distance (km) Brightness Sun altitude
Exits shadow 21:42:11 16° 236° (SW) 1,484 ? -27.5°
Maximum altitude 21:43:53 20° 269° (W) 1,293 ? -27.7°
Drops below altitude 10° 21:46:50 10° 317° (NW) 1,825 ? -28.1°
Sets 21:49:26 0° 335° (NNW) 2,727 ? -28.4°
